TimePDT,TemperatureF,Dew PointF,Humidity,Sea Level PressureIn,VisibilityMPH,Wind Direction,Wind SpeedMPH,Gust SpeedMPH,PrecipitationIn,Events,Conditions,WindDirDegrees,DateUTC
12:53 AM,57.9,57.0,97,30.17,10.0,ESE,9.2,-,N/A,,Overcast,110,2012-10-14 07:53:00
1:53 AM,57.9,57.0,97,30.16,10.0,ESE,8.1,-,N/A,,Overcast,110,2012-10-14 08:53:00
2:53 AM,59.0,55.9,90,30.15,10.0,ESE,8.1,-,N/A,,Mostly Cloudy,120,2012-10-14 09:53:00
3:53 AM,57.9,55.9,93,30.14,10.0,ESE,10.4,-,N/A,,Mostly Cloudy,120,2012-10-14 10:53:00
4:53 AM,55.9,54.0,93,30.12,10.0,ESE,9.2,-,N/A,,Mostly Cloudy,110,2012-10-14 11:53:00
5:53 AM,55.9,54.0,93,30.10,10.0,ESE,10.4,-,N/A,,Mostly Cloudy,110,2012-10-14 12:53:00
6:12 AM,57.2,53.6,88,30.11,10.0,ESE,10.4,-,N/A,,Overcast,110,2012-10-14 13:12:00
6:53 AM,55.9,53.1,90,30.10,10.0,ESE,10.4,-,N/A,,Overcast,110,2012-10-14 13:53:00
7:09 AM,55.4,53.6,94,30.09,10.0,ESE,13.8,-,N/A,,Overcast,110,2012-10-14 14:09:00
7:39 AM,57.2,55.4,94,30.10,10.0,ESE,8.1,-,N/A,,Overcast,110,2012-10-14 14:39:00
7:53 AM,57.0,54.0,89,30.10,10.0,SE,6.9,-,N/A,,Overcast,130,2012-10-14 14:53:00
8:53 AM,57.9,54.0,87,30.10,10.0,ESE,9.2,-,N/A,,Overcast,120,2012-10-14 15:53:00
9:53 AM,60.1,55.0,83,30.09,10.0,ESE,5.8,-,N/A,,Mostly Cloudy,120,2012-10-14 16:53:00
10:20 AM,60.8,55.4,82,30.09,10.0,SE,6.9,-,N/A,,Mostly Cloudy,140,2012-10-14 17:20:00
10:53 AM,63.0,55.9,78,30.09,10.0,South,9.2,-,N/A,,Mostly Cloudy,170,2012-10-14 17:53:00
11:53 AM,64.0,57.0,78,30.08,10.0,South,12.7,-,N/A,,Overcast,190,2012-10-14 18:53:00
12:53 PM,66.2,57.2,73,30.07,10.0,South,11.5,-,N/A,,Overcast,190,2012-10-14 19:53:00
1:53 PM,66.0,57.0,73,30.07,10.0,SSW,8.1,-,N/A,,Overcast,210,2012-10-14 20:53:00
2:37 PM,66.2,57.2,73,30.06,10.0,South,12.7,-,N/A,,Overcast,180,2012-10-14 21:37:00
2:53 PM,64.9,57.0,75,30.06,10.0,South,10.4,-,N/A,,Overcast,180,2012-10-14 21:53:00
3:53 PM,64.9,57.0,75,30.02,10.0,SSE,10.4,-,N/A,,Overcast,150,2012-10-14 22:53:00
4:03 PM,64.4,57.2,77,30.02,10.0,SSE,9.2,-,0.00,,Overcast,160,2012-10-14 23:03:00
4:53 PM,66.0,57.0,73,30.02,10.0,South,11.5,-,0.00,,Overcast,190,2012-10-14 23:53:00
5:48 PM,64.4,57.2,77,30.01,10.0,South,10.4,-,0.00,Rain,Light Rain,170,2012-10-15 00:48:00
5:53 PM,64.9,57.9,78,30.01,10.0,South,11.5,-,0.00,Rain,Light Rain,180,2012-10-15 00:53:00
6:23 PM,62.6,57.2,82,29.99,10.0,SSE,11.5,-,0.00,Rain,Light Rain,160,2012-10-15 01:23:00
6:53 PM,63.0,57.9,84,29.99,10.0,South,6.9,-,0.00,,Overcast,170,2012-10-15 01:53:00
7:53 PM,62.1,59.0,90,29.98,6.0,South,3.5,-,0.02,Rain,Rain,180,2012-10-15 02:53:00
8:53 PM,61.0,57.9,90,29.98,7.0,South,11.5,20.7,0.14,Rain,Rain,180,2012-10-15 03:53:00
9:53 PM,61.0,57.0,87,29.98,9.0,South,8.1,-,0.06,Rain,Rain,190,2012-10-15 04:53:00
10:53 PM,61.0,57.0,87,29.96,8.0,SSW,9.2,-,0.04,Rain,Light Rain,200,2012-10-15 05:53:00
11:53 PM,60.1,57.9,93,29.95,4.0,SSW,15.0,-,0.07,Rain,Light Rain,200,2012-10-15 06:53:00